Weather History for KHST - October, 2013

Change the Weather History Date:

Tuesday, October 15, 2013

  Actual Average Record
Temperature  
Mean Temperature 78 °F -  
Max Temperature 85 °F 85 °F 92 °F (1934)
Min Temperature 70 °F 68 °F 55 °F (1977)
Cooling Degree Days 12    
Growing Degree Days 28 (Base 50)    
Moisture  
Dew Point 69 °F    
Average Humidity 76    
Maximum Humidity 94    
Minimum Humidity 55    
Precipitation  
Precipitation 0.00 in - - ()
Sea Level Pressure  
Sea Level Pressure 29.93 in    
Wind  
Wind Speed 6 mph (NNE)    
Max Wind Speed 14 mph    
Max Gust Speed -    
Visibility 10 miles    
Events      
Averages and records for this station are not official NWS values.
T = Trace of Precipitation, MM = Missing Value Source: NWS Daily Summary

Daily Weather History Graph

Daily Weather History Graph

Search for Another Location

Airport or City:

Trip Planner

Search our weather history database for the weather conditions in past years. The results will help you decide how hot, cold, wet, or windy it might be!

Date:

Astronomy

Oct. 15, 2013 Rise Set
Actual Time 7:20 AM EDT 6:53 PM EDT
Civil Twilight 6:57 AM EDT 7:17 PM EDT
Nautical Twilight 6:30 AM EDT 7:43 PM EDT
Astronomical Twilight 6:03 AM EDT 8:10 PM EDT
Moon 4:41 PM EDT (10/15) 4:00 AM EDT (10/15)
Length of Visible Light 12h 19m
Length of Day
11h 33m
Waxing Gibbous, 87% of the Moon is Illuminated
Oct 15
Waxing Gibbous
Oct 18
Full
Oct 26
Last Quarter
Nov 3
New
Nov 10
First Quarter

Hourly Weather History & Observations

Time (EDT) Temp. Heat Index Dew Point Humidity Pressure Visibility Wind Dir Wind Speed Gust Speed Precip Events Conditions
12:58 AM 73.2 °F - 66.0 °F 78% 29.96 in 10.0 mi North 4.6 mph - N/A   Clear
1:58 AM 72.0 °F - 65.8 °F 81% 29.95 in 10.0 mi North 2.3 mph - N/A   Clear
2:58 AM 71.4 °F - 66.4 °F 84% 29.93 in 10.0 mi NNW 3.5 mph - N/A   Clear
3:58 AM 71.4 °F - 67.1 °F 86% 29.92 in 10.0 mi North 3.5 mph - N/A   Clear
4:58 AM 71.4 °F - 68.4 °F 90% 29.91 in 10.0 mi NNW 5.8 mph - N/A   Clear
5:58 AM 71.1 °F - 68.7 °F 92% 29.92 in 10.0 mi NNW 4.6 mph - N/A   Partly Cloudy
6:58 AM 70.2 °F - 68.4 °F 94% 29.93 in 10.0 mi NNW 5.8 mph - N/A   Clear
7:58 AM 71.4 °F - 69.3 °F 93% 29.95 in 10.0 mi NNW 5.8 mph - N/A   Clear
8:58 AM 74.8 °F - 70.5 °F 86% 29.96 in 10.0 mi North 10.4 mph - N/A   Clear
9:51 AM 78.8 °F - 71.6 °F 78% 29.96 in 10.0 mi North 8.1 mph - N/A   Light Drizzle
9:54 AM 78.8 °F - 71.6 °F 78% 29.96 in 10.0 mi North 6.9 mph - N/A   Clear
9:58 AM 78.8 °F - 71.6 °F 78% 29.97 in 10.0 mi North 8.1 mph - 0.00 in   Clear
10:58 AM 81.9 °F 85.6 °F 69.8 °F 67% 29.97 in 10.0 mi NNE 8.1 mph - N/A   Partly Cloudy
11:58 AM 84.2 °F 86.6 °F 66.2 °F 55% 29.96 in 10.0 mi ENE 13.8 mph - N/A   Partly Cloudy
12:58 PM 84.2 °F 87.3 °F 68.0 °F 58% 29.94 in 10.0 mi ENE 10.4 mph - N/A   Clear
1:58 PM 85.1 °F 88.5 °F 68.2 °F 57% 29.91 in 10.0 mi East 12.7 mph - N/A   Clear
2:58 PM 84.0 °F 88.4 °F 70.0 °F 63% 29.90 in 10.0 mi ENE 11.5 mph - N/A   Clear
3:58 PM 83.8 °F 86.7 °F 67.5 °F 58% 29.89 in 10.0 mi East 12.7 mph - N/A   Clear
4:58 PM 83.7 °F 87.5 °F 69.4 °F 62% 29.89 in 10.0 mi East 13.8 mph - N/A   Clear
5:58 PM 81.9 °F 85.0 °F 68.7 °F 64% 29.89 in 10.0 mi ENE 10.4 mph - N/A   Clear
6:58 PM 79.3 °F - 68.9 °F 70% 29.90 in 10.0 mi ENE 6.9 mph - N/A   Clear
7:58 PM 77.7 °F - 69.1 °F 75% 29.91 in 10.0 mi ENE 5.8 mph - N/A   Clear
8:58 PM 76.8 °F - 70.0 °F 79% 29.93 in 10.0 mi ENE 5.8 mph - N/A   Clear
9:58 PM 75.6 °F - 69.6 °F 82% 29.95 in 10.0 mi NE 3.5 mph - N/A   Clear
10:58 PM 76.1 °F - 69.1 °F 79% 29.96 in 10.0 mi Variable 3.5 mph - N/A   Clear
11:58 PM 75.0 °F - 68.7 °F 81% 29.94 in 10.0 mi Calm Calm - N/A   Clear